AAL1724 KBOS-KCMH

Flight info

Callsign AAL1724
Flight time 1h 41m
Altitude 32000
Route BLZZR6 BLZZR BAF Q480 AIR CLPRR3
Aircraft A321/M-SDE3FGHIRWY/LB1

Departure

Time 2026-05-09 02:03
Airport Boston Logan International Airport (KBOS)

Arrival

Time 2026-05-09 03:45
Airport John Glenn Columbus International Airport (KCMH)
Time Latitude Longitude Altitude Speed Heading
2026-05-09 01:21 42.36213 -71.02144 30 ft 0 kts 174°
2026-05-09 01:49 42.36221 -71.02145 31 ft 4 kts 174°
2026-05-09 01:49 42.36245 -71.02148 28 ft 2 kts 174°
2026-05-09 01:49 42.36251 -71.02149 28 ft 4 kts 177°
2026-05-09 01:50 42.36265 -71.02149 31 ft 4 kts 201°
2026-05-09 01:50 42.36283 -71.02128 27 ft 4 kts 248°
2026-05-09 01:50 42.36286 -71.02115 29 ft 0 kts 253°
2026-05-09 01:52 42.36285 -71.02120 30 ft 2 kts 253°
2026-05-09 01:52 42.36261 -71.02214 27 ft 16 kts 241°
2026-05-09 01:52 42.36165 -71.02277 25 ft 16 kts 181°
2026-05-09 01:53 42.36111 -71.02245 28 ft 0 kts 129°
2026-05-09 01:55 42.36101 -71.02229 29 ft 8 kts 126°
2026-05-09 01:55 42.36040 -71.02172 27 ft 12 kts 175°
2026-05-09 01:55 42.35965 -71.02101 27 ft 16 kts 127°
2026-05-09 01:55 42.35895 -71.01955 28 ft 21 kts 121°
2026-05-09 01:56 42.35844 -71.01775 28 ft 21 kts 102°
2026-05-09 01:56 42.35833 -71.01597 25 ft 17 kts 57°
2026-05-09 01:56 42.35936 -71.01528 27 ft 17 kts 19°
2026-05-09 01:56 42.36014 -71.01493 27 ft 17 kts 20°
2026-05-09 01:57 42.36147 -71.01428 25 ft 25 kts 20°
2026-05-09 01:57 42.36293 -71.01353 27 ft 15 kts 25°
2026-05-09 01:57 42.36298 -71.01234 27 ft 14 kts 118°
2026-05-09 01:57 42.36245 -71.01099 28 ft 19 kts 115°
2026-05-09 01:58 42.36186 -71.00926 27 ft 22 kts 114°
2026-05-09 01:58 42.36120 -71.00716 26 ft 25 kts 108°
2026-05-09 01:58 42.36066 -71.00494 25 ft 25 kts 108°
2026-05-09 01:58 42.36007 -71.00272 26 ft 25 kts 110°
2026-05-09 01:59 42.35935 -71.00063 27 ft 18 kts 126°
2026-05-09 01:59 42.35904 -71.00015 29 ft 0 kts 133°
2026-05-09 02:00 42.35904 -71.00014 25 ft 0 kts 133°
2026-05-09 02:00 42.35850 -70.99938 29 ft 27 kts 134°
2026-05-09 02:00 42.35711 -70.99752 26 ft 29 kts 136°
2026-05-09 02:00 42.35568 -70.99567 29 ft 24 kts 135°
2026-05-09 02:01 42.35489 -70.99411 25 ft 18 kts 91°
2026-05-09 02:01 42.35493 -70.99382 25 ft 0 kts 77°
2026-05-09 02:01 42.35494 -70.99378 25 ft 3 kts 77°
2026-05-09 02:01 42.35500 -70.99282 25 ft 9 kts 88°
2026-05-09 02:02 42.35538 -70.99266 25 ft 2 kts 320°
2026-05-09 02:02 42.35540 -70.99270 25 ft 1 kts 317°
2026-05-09 02:02 42.35573 -70.99312 27 ft 28 kts 315°
2026-05-09 02:02 42.35883 -70.99728 26 ft 95 kts 315°
2026-05-09 02:03 42.36488 -71.00543 26 ft 147 kts 315°
2026-05-09 02:03 42.37279 -71.01594 366 ft 161 kts 314°
2026-05-09 02:03 42.38035 -71.02780 822 ft 172 kts 304°
2026-05-09 02:03 42.38661 -71.04236 1139 ft 187 kts 295°
2026-05-09 02:04 42.39199 -71.05859 1567 ft 191 kts 293°
2026-05-09 02:04 42.39744 -71.07514 2028 ft 193 kts 294°
2026-05-09 02:04 42.40207 -71.09240 2438 ft 200 kts 281°
2026-05-09 02:04 42.40235 -71.11164 2795 ft 213 kts 264°
2026-05-09 02:05 42.39960 -71.13253 2965 ft 240 kts 259°
2026-05-09 02:05 42.39535 -71.15530 3339 ft 259 kts 254°
2026-05-09 02:05 42.38970 -71.17853 4118 ft 258 kts 252°
2026-05-09 02:05 42.38379 -71.20120 5070 ft 255 kts 251°
2026-05-09 02:06 42.37764 -71.22363 5886 ft 254 kts 252°
2026-05-09 02:06 42.37167 -71.24605 6740 ft 250 kts 252°
2026-05-09 02:06 42.36562 -71.26815 7513 ft 251 kts 252°
2026-05-09 02:07 42.35264 -71.31280 8785 ft 263 kts 251°
2026-05-09 02:07 42.34546 -71.33595 9405 ft 270 kts 249°
2026-05-09 02:07 42.33795 -71.35924 10127 ft 271 kts 250°
2026-05-09 02:07 42.33104 -71.38282 10876 ft 269 kts 253°
2026-05-09 02:08 42.32442 -71.40693 11362 ft 279 kts 251°
2026-05-09 02:08 42.31664 -71.43205 11521 ft 300 kts 250°
2026-05-09 02:08 42.30806 -71.45869 11685 ft 318 kts 249°
2026-05-09 02:08 42.29879 -71.48667 11883 ft 334 kts 249°
2026-05-09 02:09 42.28899 -71.51588 12199 ft 345 kts 250°
2026-05-09 02:09 42.28006 -71.54593 12907 ft 344 kts 253°
2026-05-09 02:09 42.27185 -71.57632 13613 ft 345 kts 253°
2026-05-09 02:09 42.26365 -71.60683 14203 ft 347 kts 253°
2026-05-09 02:10 42.25508 -71.63743 14778 ft 350 kts 252°
2026-05-09 02:10 42.24609 -71.66802 15371 ft 352 kts 252°
2026-05-09 02:10 42.23675 -71.69871 15955 ft 355 kts 251°
2026-05-09 02:10 42.22713 -71.72960 16536 ft 357 kts 251°
2026-05-09 02:11 42.21905 -71.76120 17098 ft 356 kts 260°
2026-05-09 02:11 42.21539 -71.79405 17662 ft 355 kts 268°
2026-05-09 02:11 42.21363 -71.82737 18222 ft 357 kts 268°
2026-05-09 02:11 42.21186 -71.86082 18706 ft 359 kts 268°
2026-05-09 02:12 42.21006 -71.89446 19160 ft 361 kts 268°
2026-05-09 02:12 42.20821 -71.92824 19610 ft 363 kts 268°
2026-05-09 02:12 42.20629 -71.96235 20054 ft 365 kts 268°
2026-05-09 02:12 42.20436 -71.99653 20498 ft 367 kts 268°
2026-05-09 02:13 42.20244 -72.03097 20917 ft 369 kts 268°
2026-05-09 02:13 42.20054 -72.06520 21353 ft 371 kts 268°
2026-05-09 02:13 42.19857 -72.09996 21775 ft 373 kts 268°
2026-05-09 02:13 42.19659 -72.13495 22186 ft 375 kts 268°
2026-05-09 02:14 42.19457 -72.17015 22590 ft 377 kts 268°
2026-05-09 02:14 42.19254 -72.20549 22989 ft 379 kts 268°
2026-05-09 02:14 42.19049 -72.24109 23398 ft 381 kts 268°
2026-05-09 02:14 42.18844 -72.27678 23762 ft 383 kts 268°
2026-05-09 02:15 42.18635 -72.31269 24132 ft 384 kts 268°
2026-05-09 02:15 42.18423 -72.34866 24505 ft 385 kts 268°
2026-05-09 02:15 42.18208 -72.38468 24862 ft 386 kts 268°
2026-05-09 02:15 42.17993 -72.42071 25209 ft 387 kts 268°
2026-05-09 02:16 42.17790 -72.45474 25519 ft 388 kts 268°
2026-05-09 02:16 42.17612 -72.48476 25799 ft 389 kts 268°
2026-05-09 02:16 42.17392 -72.52161 26142 ft 390 kts 268°
2026-05-09 02:16 42.17171 -72.55806 26483 ft 391 kts 268°
2026-05-09 02:17 42.16947 -72.59466 26826 ft 392 kts 268°
2026-05-09 02:17 42.16718 -72.63143 27165 ft 393 kts 268°
2026-05-09 02:17 42.16485 -72.66818 27486 ft 394 kts 267°
2026-05-09 02:17 42.16008 -72.70468 27898 ft 397 kts 259°
2026-05-09 02:18 42.15065 -72.73970 28351 ft 400 kts 250°
2026-05-09 02:18 42.13690 -72.77305 28808 ft 402 kts 245°
2026-05-09 02:18 42.12279 -72.80491 29224 ft 400 kts 246°
2026-05-09 02:18 42.10855 -72.83703 29650 ft 399 kts 246°
2026-05-09 02:19 42.09436 -72.86901 30071 ft 397 kts 246°
2026-05-09 02:19 42.08023 -72.90087 30420 ft 395 kts 246°
2026-05-09 02:19 42.06618 -72.93259 30784 ft 393 kts 246°
2026-05-09 02:19 42.05218 -72.96413 31105 ft 392 kts 246°
2026-05-09 02:20 42.03800 -72.99599 31436 ft 391 kts 245°
2026-05-09 02:20 42.02424 -73.02692 31751 ft 390 kts 245°
2026-05-09 02:20 42.01009 -73.05867 31952 ft 390 kts 245°
2026-05-09 02:21 41.98229 -73.12080 31981 ft 386 kts 245°
2026-05-09 02:21 41.95463 -73.18243 31977 ft 384 kts 245°
2026-05-09 02:22 41.92711 -73.24386 31975 ft 383 kts 245°
2026-05-09 02:22 41.89954 -73.30510 31975 ft 383 kts 245°
2026-05-09 02:23 41.87195 -73.36642 31984 ft 384 kts 246°
2026-05-09 02:23 41.84440 -73.42768 31969 ft 384 kts 245°
2026-05-09 02:24 41.81677 -73.48908 31946 ft 384 kts 246°
2026-05-09 02:24 41.78919 -73.55015 31972 ft 382 kts 246°
2026-05-09 02:25 41.76155 -73.61095 31985 ft 381 kts 245°
2026-05-09 02:25 41.73400 -73.67147 31994 ft 380 kts 246°
2026-05-09 02:26 41.70654 -73.73199 32000 ft 380 kts 246°
2026-05-09 02:26 41.67905 -73.79237 32006 ft 380 kts 246°
2026-05-09 02:27 41.64765 -73.84988 32003 ft 388 kts 237°
2026-05-09 02:27 41.61211 -73.90441 32002 ft 389 kts 237°
2026-05-09 02:28 41.57658 -73.95887 32001 ft 388 kts 238°
2026-05-09 02:28 41.54111 -74.01331 31994 ft 389 kts 238°
2026-05-09 02:29 41.50552 -74.06796 31993 ft 399 kts 238°
2026-05-09 02:29 41.46877 -74.12423 31954 ft 403 kts 237°
2026-05-09 02:30 41.43153 -74.18086 31954 ft 403 kts 237°
2026-05-09 02:30 41.40082 -74.22760 31964 ft 403 kts 237°
2026-05-09 02:31 41.35786 -74.29288 31973 ft 403 kts 237°
2026-05-09 02:31 41.32085 -74.34904 31944 ft 403 kts 238°
2026-05-09 02:32 41.28992 -74.39585 32002 ft 401 kts 238°
2026-05-09 02:32 41.25307 -74.45149 32017 ft 400 kts 238°
2026-05-09 02:33 41.21996 -74.50972 32024 ft 393 kts 242°
2026-05-09 02:33 41.18775 -74.56845 32024 ft 394 kts 242°
2026-05-09 02:34 41.15541 -74.62715 31978 ft 393 kts 242°
2026-05-09 02:34 41.12313 -74.68560 32002 ft 392 kts 242°
2026-05-09 02:35 41.09081 -74.74420 32019 ft 392 kts 242°
2026-05-09 02:35 41.05831 -74.80280 32004 ft 391 kts 242°
2026-05-09 02:36 41.02601 -74.86086 32003 ft 390 kts 242°
2026-05-09 02:36 40.99379 -74.91876 31993 ft 390 kts 242°
2026-05-09 02:37 40.96189 -74.97674 31960 ft 388 kts 244°
2026-05-09 02:37 40.93313 -75.03680 31958 ft 381 kts 252°
2026-05-09 02:38 40.91274 -75.10088 31976 ft 378 kts 254°
2026-05-09 02:38 40.89216 -75.16616 31975 ft 379 kts 253°
2026-05-09 02:39 40.87206 -75.22995 31980 ft 379 kts 253°
2026-05-09 02:39 40.85183 -75.29425 31982 ft 379 kts 254°
2026-05-09 02:40 40.83158 -75.35862 31922 ft 379 kts 254°
2026-05-09 02:40 40.81127 -75.42298 31940 ft 380 kts 254°
2026-05-09 02:41 40.79083 -75.48744 31964 ft 381 kts 253°
2026-05-09 02:41 40.77034 -75.55188 31988 ft 381 kts 253°
2026-05-09 02:42 40.74973 -75.61641 31988 ft 381 kts 253°
2026-05-09 02:42 40.72916 -75.68082 31987 ft 381 kts 253°
2026-05-09 02:43 40.70850 -75.74519 31983 ft 381 kts 253°
2026-05-09 02:43 40.68783 -75.80951 31982 ft 381 kts 253°
2026-05-09 02:44 40.66719 -75.87392 31950 ft 381 kts 253°
2026-05-09 02:44 40.64650 -75.93827 31960 ft 382 kts 253°
2026-05-09 02:45 40.62573 -76.00264 31972 ft 382 kts 253°
2026-05-09 02:45 40.60484 -76.06695 31975 ft 382 kts 253°
2026-05-09 02:46 40.58392 -76.13126 31975 ft 382 kts 253°
2026-05-09 02:46 40.56303 -76.19558 32002 ft 382 kts 253°
2026-05-09 02:47 40.54212 -76.25974 31999 ft 381 kts 253°
2026-05-09 02:47 40.52119 -76.32363 31935 ft 381 kts 253°
2026-05-09 02:48 40.50022 -76.38754 31931 ft 381 kts 253°
2026-05-09 02:48 40.47921 -76.45147 31944 ft 381 kts 253°
2026-05-09 02:49 40.45820 -76.51546 31982 ft 382 kts 253°
2026-05-09 02:49 40.43712 -76.57944 31985 ft 381 kts 253°
2026-05-09 02:50 40.41593 -76.64334 31978 ft 381 kts 253°
2026-05-09 02:50 40.39481 -76.70710 31974 ft 381 kts 253°
2026-05-09 02:51 40.37368 -76.77088 31973 ft 381 kts 252°
2026-05-09 02:51 40.35246 -76.83481 31947 ft 382 kts 252°
2026-05-09 02:52 40.33112 -76.89852 31977 ft 382 kts 252°
2026-05-09 02:52 40.30973 -76.96230 31976 ft 382 kts 252°
2026-05-09 02:53 40.28839 -77.02600 31978 ft 383 kts 252°
2026-05-09 02:53 40.26703 -77.08983 31980 ft 383 kts 252°
2026-05-09 02:54 40.24558 -77.15361 31980 ft 383 kts 252°
2026-05-09 02:54 40.22403 -77.21735 31980 ft 383 kts 252°
2026-05-09 02:55 40.20247 -77.28096 31934 ft 383 kts 252°
2026-05-09 02:55 40.18091 -77.34460 31951 ft 382 kts 252°
2026-05-09 02:56 40.15938 -77.40814 31962 ft 383 kts 252°
2026-05-09 02:56 40.13771 -77.47171 31970 ft 383 kts 252°
2026-05-09 02:57 40.11604 -77.53520 31972 ft 383 kts 252°
2026-05-09 02:57 40.09429 -77.59871 31986 ft 383 kts 251°
2026-05-09 02:58 40.07249 -77.66229 31983 ft 384 kts 251°
2026-05-09 02:58 40.05060 -77.72590 31981 ft 384 kts 251°
2026-05-09 02:59 40.02866 -77.78948 31977 ft 384 kts 251°
2026-05-09 02:59 40.00669 -77.85305 31975 ft 384 kts 251°
2026-05-09 03:00 39.98473 -77.91653 31976 ft 384 kts 252°
2026-05-09 03:00 39.97230 -77.98289 31969 ft 375 kts 269°
2026-05-09 03:01 39.97392 -78.05082 31972 ft 375 kts 272°
2026-05-09 03:01 39.97553 -78.10721 31966 ft 375 kts 272°
2026-05-09 03:02 39.97728 -78.17518 31967 ft 375 kts 272°
2026-05-09 03:02 39.97898 -78.24304 31968 ft 375 kts 272°
2026-05-09 03:03 39.98075 -78.31093 31963 ft 375 kts 272°
2026-05-09 03:03 39.98249 -78.37882 31963 ft 375 kts 272°
2026-05-09 03:04 39.98414 -78.44682 31962 ft 376 kts 272°
2026-05-09 03:04 39.98574 -78.51486 31966 ft 376 kts 272°
2026-05-09 03:05 39.98732 -78.58300 31968 ft 376 kts 272°
2026-05-09 03:05 39.98884 -78.65106 31969 ft 375 kts 272°
2026-05-09 03:06 39.99036 -78.71962 31969 ft 376 kts 272°
2026-05-09 03:06 39.99181 -78.78775 31971 ft 376 kts 272°
2026-05-09 03:07 39.99325 -78.85595 31974 ft 376 kts 272°
2026-05-09 03:07 39.99460 -78.92401 31972 ft 376 kts 272°
2026-05-09 03:08 39.99598 -78.99224 31975 ft 376 kts 272°
2026-05-09 03:08 39.99732 -79.06051 31965 ft 376 kts 271°
2026-05-09 03:09 39.99856 -79.12888 31957 ft 377 kts 271°
2026-05-09 03:09 39.99976 -79.19741 31957 ft 378 kts 271°
2026-05-09 03:10 40.00096 -79.26608 31967 ft 379 kts 271°
2026-05-09 03:10 40.00210 -79.33483 31975 ft 379 kts 271°
2026-05-09 03:11 40.00324 -79.40372 31984 ft 380 kts 271°
2026-05-09 03:11 40.00429 -79.47254 32001 ft 380 kts 271°
2026-05-09 03:12 40.00533 -79.54129 31998 ft 379 kts 271°
2026-05-09 03:12 40.00632 -79.61013 31960 ft 379 kts 271°
2026-05-09 03:13 40.00774 -79.71337 31935 ft 380 kts 271°
2026-05-09 03:13 40.00869 -79.78222 31931 ft 380 kts 271°
2026-05-09 03:14 40.00955 -79.85110 31936 ft 380 kts 271°
2026-05-09 03:14 40.01038 -79.92005 31874 ft 381 kts 271°
2026-05-09 03:15 40.01077 -79.95459 31565 ft 380 kts 270°
2026-05-09 03:15 40.01112 -79.98903 31237 ft 379 kts 271°
2026-05-09 03:15 40.01146 -80.02343 30915 ft 380 kts 271°
2026-05-09 03:15 40.01181 -80.05794 30592 ft 379 kts 271°
2026-05-09 03:16 40.01214 -80.09233 30271 ft 379 kts 271°
2026-05-09 03:16 40.01247 -80.12677 29954 ft 379 kts 271°
2026-05-09 03:16 40.01278 -80.16113 29579 ft 378 kts 271°
2026-05-09 03:16 40.01307 -80.19539 29216 ft 377 kts 271°
2026-05-09 03:17 40.01337 -80.22952 28852 ft 376 kts 271°
2026-05-09 03:17 40.01368 -80.26358 28498 ft 374 kts 271°
2026-05-09 03:17 40.01400 -80.29815 28146 ft 382 kts 271°
2026-05-09 03:17 40.01429 -80.33350 27788 ft 395 kts 271°
2026-05-09 03:18 40.01455 -80.36913 27448 ft 398 kts 271°
2026-05-09 03:18 40.01480 -80.40524 27109 ft 397 kts 271°
2026-05-09 03:18 40.01506 -80.44170 26768 ft 396 kts 270°
2026-05-09 03:18 40.01532 -80.47749 26421 ft 394 kts 270°
2026-05-09 03:19 40.01557 -80.51311 26103 ft 392 kts 270°
2026-05-09 03:19 40.01579 -80.54860 25777 ft 391 kts 270°
2026-05-09 03:19 40.01597 -80.58405 25456 ft 390 kts 270°
2026-05-09 03:19 40.01613 -80.61928 25133 ft 388 kts 270°
2026-05-09 03:20 40.01629 -80.65446 24823 ft 387 kts 270°
2026-05-09 03:20 40.01645 -80.68945 24509 ft 385 kts 270°
2026-05-09 03:20 40.01661 -80.72430 24203 ft 384 kts 270°
2026-05-09 03:20 40.01678 -80.75976 23892 ft 399 kts 270°
2026-05-09 03:21 40.01660 -80.79666 23591 ft 413 kts 266°
2026-05-09 03:21 40.01162 -80.83370 23252 ft 418 kts 256°
2026-05-09 03:21 40.00146 -80.86943 22892 ft 420 kts 251°
2026-05-09 03:21 39.99078 -80.90481 22538 ft 419 kts 251°
2026-05-09 03:22 39.98012 -80.94014 22194 ft 418 kts 251°
2026-05-09 03:22 39.96949 -80.97539 21850 ft 417 kts 251°
2026-05-09 03:22 39.95885 -81.01059 21508 ft 416 kts 251°
2026-05-09 03:22 39.94823 -81.04562 21169 ft 415 kts 251°
2026-05-09 03:23 39.93763 -81.08054 20839 ft 414 kts 251°
2026-05-09 03:23 39.92704 -81.11541 20507 ft 413 kts 250°
2026-05-09 03:23 39.91647 -81.15020 20186 ft 412 kts 250°
2026-05-09 03:23 39.90591 -81.18488 19840 ft 411 kts 250°
2026-05-09 03:24 39.89536 -81.21949 19523 ft 411 kts 250°
2026-05-09 03:24 39.88481 -81.25400 19202 ft 409 kts 250°
2026-05-09 03:24 39.87427 -81.28839 18899 ft 409 kts 250°
2026-05-09 03:24 39.86372 -81.32271 18590 ft 408 kts 250°
2026-05-09 03:25 39.85321 -81.35691 18282 ft 407 kts 250°
2026-05-09 03:25 39.84271 -81.39110 17939 ft 406 kts 250°
2026-05-09 03:25 39.83220 -81.42518 17590 ft 405 kts 250°
2026-05-09 03:25 39.82171 -81.45908 17250 ft 404 kts 250°
2026-05-09 03:26 39.81123 -81.49293 16906 ft 403 kts 250°
2026-05-09 03:26 39.80095 -81.52672 16556 ft 401 kts 250°
2026-05-09 03:26 39.79098 -81.56052 16229 ft 399 kts 251°
2026-05-09 03:26 39.78122 -81.59421 15908 ft 397 kts 251°
2026-05-09 03:27 39.77170 -81.62723 15569 ft 383 kts 251°
2026-05-09 03:27 39.76248 -81.65914 15242 ft 372 kts 251°
2026-05-09 03:27 39.75343 -81.69024 14925 ft 362 kts 251°
2026-05-09 03:27 39.74459 -81.72040 14604 ft 352 kts 251°
2026-05-09 03:28 39.73598 -81.74969 14275 ft 343 kts 251°
2026-05-09 03:28 39.72753 -81.77827 13961 ft 336 kts 251°
2026-05-09 03:28 39.71915 -81.80656 13649 ft 335 kts 251°
2026-05-09 03:28 39.71073 -81.83503 13297 ft 333 kts 251°
2026-05-09 03:29 39.70256 -81.86267 12954 ft 331 kts 251°
2026-05-09 03:29 39.69437 -81.89044 12616 ft 328 kts 251°
2026-05-09 03:29 39.68611 -81.91843 12271 ft 326 kts 251°
2026-05-09 03:29 39.67803 -81.94573 11937 ft 323 kts 251°
2026-05-09 03:30 39.66994 -81.97289 11605 ft 321 kts 251°
2026-05-09 03:30 39.66191 -81.99978 11280 ft 318 kts 251°
2026-05-09 03:30 39.65405 -82.02609 11023 ft 316 kts 251°
2026-05-09 03:30 39.64603 -82.05301 10990 ft 316 kts 251°
2026-05-09 03:31 39.63838 -82.07975 10990 ft 315 kts 255°
2026-05-09 03:31 39.63486 -82.10766 10907 ft 315 kts 268°
2026-05-09 03:31 39.63702 -82.13556 10578 ft 308 kts 282°
2026-05-09 03:31 39.64451 -82.16126 10262 ft 305 kts 295°
2026-05-09 03:32 39.65611 -82.18364 9958 ft 301 kts 302°
2026-05-09 03:32 39.66846 -82.20516 9637 ft 294 kts 302°
2026-05-09 03:32 39.68058 -82.22642 9285 ft 288 kts 302°
2026-05-09 03:32 39.69224 -82.24691 8924 ft 273 kts 302°
2026-05-09 03:33 39.70315 -82.26606 8577 ft 254 kts 301°
2026-05-09 03:33 39.71334 -82.28400 8253 ft 240 kts 301°
2026-05-09 03:33 39.72321 -82.30149 7966 ft 239 kts 301°
2026-05-09 03:33 39.73297 -82.31885 7704 ft 238 kts 301°
2026-05-09 03:34 39.74422 -82.33492 7441 ft 244 kts 313°
2026-05-09 03:34 39.75734 -82.34906 7202 ft 245 kts 314°
2026-05-09 03:34 39.77049 -82.36323 6954 ft 246 kts 314°
2026-05-09 03:34 39.77925 -82.37267 6792 ft 247 kts 314°
2026-05-09 03:35 39.79250 -82.38695 6559 ft 248 kts 314°
2026-05-09 03:35 39.80571 -82.40120 6319 ft 244 kts 313°
2026-05-09 03:35 39.81859 -82.41507 6056 ft 236 kts 313°
2026-05-09 03:35 39.83092 -82.42833 5804 ft 224 kts 313°
2026-05-09 03:36 39.84266 -82.44097 5505 ft 216 kts 312°
2026-05-09 03:36 39.85414 -82.45342 5042 ft 214 kts 313°
2026-05-09 03:36 39.86551 -82.46578 4592 ft 212 kts 313°
2026-05-09 03:36 39.87667 -82.47787 4125 ft 206 kts 314°
2026-05-09 03:37 39.88735 -82.48941 3998 ft 196 kts 314°
2026-05-09 03:37 39.89774 -82.50068 3998 ft 193 kts 314°
2026-05-09 03:37 39.90804 -82.51188 3999 ft 192 kts 313°
2026-05-09 03:37 39.91829 -82.52300 4000 ft 192 kts 314°
2026-05-09 03:38 39.92860 -82.53411 3999 ft 192 kts 313°
2026-05-09 03:38 39.93885 -82.54523 4001 ft 192 kts 313°
2026-05-09 03:38 39.94908 -82.55644 3998 ft 192 kts 313°
2026-05-09 03:38 39.95931 -82.56771 3999 ft 192 kts 313°
2026-05-09 03:39 39.96897 -82.57952 3997 ft 187 kts 301°
2026-05-09 03:39 39.97472 -82.59421 3998 ft 179 kts 280°
2026-05-09 03:39 39.97627 -82.61009 4000 ft 176 kts 269°
2026-05-09 03:39 39.97720 -82.62603 3999 ft 177 kts 269°
2026-05-09 03:40 39.97815 -82.64204 3998 ft 176 kts 269°
2026-05-09 03:40 39.97909 -82.65710 4012 ft 161 kts 269°
2026-05-09 03:40 39.97994 -82.67150 3858 ft 157 kts 269°
2026-05-09 03:40 39.98076 -82.68560 3662 ft 156 kts 269°
2026-05-09 03:41 39.98158 -82.69974 3460 ft 156 kts 269°
2026-05-09 03:41 39.98240 -82.71331 3228 ft 145 kts 270°
2026-05-09 03:41 39.98309 -82.72665 3022 ft 148 kts 269°
2026-05-09 03:41 39.98376 -82.74008 2822 ft 150 kts 271°
2026-05-09 03:42 39.98494 -82.75371 2611 ft 153 kts 274°
2026-05-09 03:42 39.98608 -82.76767 2396 ft 153 kts 271°
2026-05-09 03:42 39.98654 -82.78131 2240 ft 148 kts 271°
2026-05-09 03:42 39.98731 -82.79460 2005 ft 150 kts 274°
2026-05-09 03:43 39.98815 -82.80819 1778 ft 151 kts 273°
2026-05-09 03:43 39.98880 -82.82188 1551 ft 151 kts 274°
2026-05-09 03:43 39.98945 -82.83551 1385 ft 149 kts 274°
2026-05-09 03:43 39.99018 -82.84890 1219 ft 148 kts 275°
2026-05-09 03:44 39.99096 -82.86230 1022 ft 149 kts 274°
2026-05-09 03:44 39.99171 -82.87579 831 ft 144 kts 274°
2026-05-09 03:44 39.99235 -82.88723 824 ft 105 kts 274°
2026-05-09 03:44 39.99277 -82.89443 820 ft 55 kts 274°
2026-05-09 03:45 39.99307 -82.89884 821 ft 39 kts 281°
2026-05-09 03:45 39.99420 -82.90189 818 ft 34 kts 306°
2026-05-09 03:45 39.99485 -82.90249 818 ft 6 kts 37°
2026-05-09 03:45 39.99499 -82.90187 814 ft 9 kts 96°
2026-05-09 03:46 39.99494 -82.90083 815 ft 15 kts 93°
2026-05-09 03:46 39.99487 -82.89926 823 ft 19 kts 94°
2026-05-09 03:46 39.99477 -82.89729 824 ft 25 kts 94°
2026-05-09 03:46 39.99462 -82.89487 825 ft 26 kts 94°
2026-05-09 03:47 39.99448 -82.89262 824 ft 25 kts 95°
2026-05-09 03:47 39.99436 -82.89034 822 ft 25 kts 92°
2026-05-09 03:47 39.99425 -82.88816 819 ft 24 kts 96°
2026-05-09 03:47 39.99410 -82.88602 817 ft 23 kts 94°
2026-05-09 03:48 39.99401 -82.88426 820 ft 16 kts 94°
2026-05-09 03:48 39.99452 -82.88326 819 ft 14 kts 14°
2026-05-09 03:48 39.99547 -82.88316 819 ft 14 kts
2026-05-09 03:48 39.99619 -82.88262 816 ft 12 kts 52°
2026-05-09 03:49 39.99662 -82.88193 817 ft 8 kts 58°
2026-05-09 03:49 39.99688 -82.88146 821 ft 5 kts 42°
2026-05-09 03:49 39.99702 -82.88131 821 ft 2 kts 48°
2026-05-09 03:49 39.99713 -82.88117 822 ft 1 kts 36°
2026-05-09 03:50 39.99730 -82.88107 822 ft 3 kts 25°
2026-05-09 03:50 39.99738 -82.88102 820 ft 0 kts 24°
2026-05-09 03:50 39.99741 -82.88100 821 ft 0 kts 25°